Homer, AK

8:43 AM AKDT on April 29, 2017 (GMT -0800)
Homer

Weather History for PAHO - October, 2013

Change the Weather History Date:

Saturday, October 5, 2013

  Actual Average Record
Temperature  
Mean Temperature 42 °F -  
Max Temperature 50 °F 48 °F 59 °F (1941)
Min Temperature 36 °F 35 °F 20 °F (1958)
Degree Days  
Heating Degree Days 23    
Moisture  
Dew Point 37 °F    
Average Humidity 72    
Maximum Humidity 89    
Minimum Humidity 54    
Precipitation  
Precipitation 0.00 in - - ()
Sea Level Pressure  
Sea Level Pressure 29.77 in    
Wind  
Wind Speed 5 mph (SSW)    
Max Wind Speed 12 mph    
Max Gust Speed 18 mph    
Visibility 10 miles    
Events      
Averages and records for this station are not official NWS values.
T = Trace of Precipitation, MM = Missing Value Source: NWS Daily Summary

Daily Weather History Graph

Daily Weather History Graph

Search for Another Location

Airport or City:

Trip Planner

Search our weather history database for the weather conditions in past years. The results will help you decide how hot, cold, wet, or windy it might be!

Date:

Astronomy

Oct. 05, 2013 Rise Set
Actual Time 8:21 AM AKDT 7:25 PM AKDT
Civil Twilight 7:40 AM AKDT 8:06 PM AKDT
Nautical Twilight 6:52 AM AKDT 8:54 PM AKDT
Astronomical Twilight 6:03 AM AKDT 9:43 PM AKDT
Moon 9:34 AM AKDT (10/5) 7:24 PM AKDT (10/5)
Length of Visible Light 12h 25m
Length of Day
11h 03m
New Moon, 1% of the Moon is Illuminated
Oct 5
New Moon
Oct 11
First Quarter
Oct 18
Full
Oct 26
Last Quarter
Nov 3
New

Hourly Weather History & Observations

Time (AKDT) Temp. Windchill Dew Point Humidity Pressure Visibility Wind Dir Wind Speed Gust Speed Precip Events Conditions
12:53 AM 46.9 °F - 37.9 °F 71% 29.79 in 10.0 mi WSW 9.2 mph - N/A   Clear
1:53 AM 45.0 °F 41.2 °F 37.0 °F 74% 29.79 in 10.0 mi WSW 6.9 mph - N/A   Clear
2:53 AM 44.1 °F 40.8 °F 37.0 °F 76% 29.81 in 10.0 mi WSW 5.8 mph - N/A   Clear
3:53 AM 45.0 °F 40.6 °F 37.0 °F 74% 29.81 in 10.0 mi SW 8.1 mph - N/A   Clear
4:53 AM 46.0 °F 40.6 °F 37.0 °F 71% 29.81 in 10.0 mi SW 11.5 mph - N/A   Clear
5:53 AM 43.0 °F 39.5 °F 37.9 °F 82% 29.79 in 10.0 mi ESE 5.8 mph - N/A   Clear
6:53 AM 37.0 °F - 32.0 °F 82% 29.79 in 10.0 mi Calm Calm - N/A   Clear
7:53 AM 36.0 °F - 32.0 °F 86% 29.79 in 10.0 mi Calm Calm - N/A   Partly Cloudy
8:53 AM 37.0 °F - 34.0 °F 89% 29.79 in 10.0 mi Calm Calm - N/A   Partly Cloudy
9:53 AM 39.9 °F 37.8 °F 36.0 °F 86% 29.80 in 10.0 mi East 3.5 mph - N/A   Clear
10:53 AM 45.0 °F - 39.0 °F 80% 29.80 in 10.0 mi Calm Calm - N/A   Scattered Clouds
11:53 AM 46.0 °F - 39.0 °F 76% 29.80 in 10.0 mi Calm Calm - N/A   Mostly Cloudy
12:53 PM 48.0 °F - 39.0 °F 71% 29.80 in 10.0 mi Calm Calm - N/A   Mostly Cloudy
1:53 PM 48.0 °F - 39.0 °F 71% 29.79 in 10.0 mi SSE 3.5 mph - N/A   Mostly Cloudy
2:53 PM 48.0 °F - 37.9 °F 68% 29.77 in 10.0 mi East 3.5 mph - N/A   Mostly Cloudy
3:53 PM 48.9 °F - 37.9 °F 66% 29.75 in 10.0 mi West 3.5 mph - N/A   Mostly Cloudy
4:53 PM 48.9 °F - 39.0 °F 69% 29.73 in 10.0 mi West 6.9 mph - N/A   Mostly Cloudy
5:53 PM 48.9 °F - 37.9 °F 66% 29.71 in 10.0 mi Calm Calm - N/A   Mostly Cloudy
6:53 PM 46.9 °F - 39.9 °F 77% 29.71 in 10.0 mi West 3.5 mph - N/A   Mostly Cloudy
7:53 PM 46.9 °F - 37.0 °F 68% 29.71 in 10.0 mi Calm Calm - N/A   Scattered Clouds
8:53 PM 48.9 °F - 33.1 °F 54% 29.71 in 10.0 mi SSE 8.1 mph - N/A   Overcast
9:53 PM 48.9 °F - 34.0 °F 56% 29.71 in 10.0 mi SSE 9.2 mph 18.4 mph N/A   Overcast
10:53 PM 48.0 °F - 34.0 °F 58% 29.71 in 10.0 mi Variable 6.9 mph - N/A   Overcast
11:53 PM 48.0 °F - 35.1 °F 61% 29.71 in 10.0 mi Variable 4.6 mph - N/A   Overcast